Date,TemperatureHighF,TemperatureAvgF,TemperatureLowF,DewpointHighF,DewpointAvgF,DewpointLowF,HumidityHigh,HumidityAvg,HumidityLow,PressureMaxIn,PressureMinIn,WindSpeedMaxMPH,WindSpeedAvgMPH,GustSpeedMaxMPH,PrecipitationSumIn
2013-1-1,33.1,22.0,5.6,27.6,14.0,1.0,83,72,56,30.02,29.80,14,2,21,0.00
2013-1-2,25.7,19.4,6.7,19.5,13.5,2.6,87,78,65,30.19,29.96,11,2,14,0.00
2013-1-3,28.4,21.4,12.4,25.2,16.6,7.7,90,82,71,30.18,29.94,11,2,19,0.00
2013-1-4,32.5,30.2,26.1,24.5,22.3,18.3,80,72,67,29.97,29.83,19,8,30,0.00
2013-1-5,35.8,31.8,29.0,26.0,23.6,21.2,75,71,63,30.25,29.98,12,2,18,0.01
2013-1-6,37.2,34.1,29.5,32.3,29.0,21.9,91,81,73,30.03,29.84,11,2,16,0.11
2013-1-7,34.7,28.1,24.2,31.5,21.9,18.6,88,77,65,30.36,30.03,8,1,11,0.00
2013-1-8,39.5,29.5,23.8,26.5,21.7,17.4,88,73,59,30.29,30.12,10,1,11,0.02
2013-1-9,48.0,36.2,25.0,34.8,27.3,19.8,86,71,56,30.26,29.91,22,4,30,0.00
2013-1-10,44.5,37.5,31.8,28.5,26.8,25.1,83,66,50,30.55,30.27,15,1,15,0.00
2013-1-11,44.1,39.9,33.5,39.2,32.7,24.7,90,76,53,30.39,29.84,6,2,14,0.13
2013-1-12,56.7,48.3,41.6,48.9,44.2,38.8,93,86,74,29.94,29.89,5,1,12,0.00
2013-1-13,68.9,55.5,48.2,56.2,50.3,46.0,92,83,63,29.91,29.68,19,2,19,0.00
2013-1-14,53.1,35.6,27.8,50.8,28.0,18.5,92,74,64,30.35,29.67,16,4,27,0.02
2013-1-15,33.5,28.9,25.4,21.8,19.4,17.5,76,68,52,30.36,30.15,5,1,8,0.00
2013-1-16,39.2,32.4,28.4,29.2,24.3,20.8,77,72,62,30.14,29.73,16,2,19,0.00
2013-1-17,35.5,24.9,16.4,28.6,16.9,9.7,85,72,61,30.16,29.79,11,2,16,0.00
2013-1-18,29.0,20.2,11.2,16.1,10.9,5.7,87,69,48,30.40,29.99,11,2,14,0.02
2013-1-19,48.0,40.2,28.1,29.5,23.3,16.0,63,51,39,29.99,29.54,17,4,26,0.01
2013-1-20,48.5,30.6,17.2,34.3,18.4,7.1,87,62,41,30.04,29.39,25,8,31,0.02
2013-1-21,20.8,17.8,12.8,13.6,8.0,1.2,77,65,54,30.03,29.84,12,2,14,0.00
2013-1-22,12.9,9.8,6.9,0.8,-3.1,-7.0,73,56,43,30.16,29.86,17,6,21,0.00
2013-1-23,13.6,9.5,5.2,6.3,1.0,-5.2,84,68,50,30.21,30.07,7,1,11,0.00
2013-1-24,13.3,10.6,7.2,8.5,4.0,-0.1,84,75,61,30.50,30.05,9,1,13,0.00
2013-1-25,16.2,11.8,8.1,9.8,5.0,0.6,82,74,63,30.48,30.07,5,0,9,0.00
2013-1-26,23.8,12.9,0.3,14.3,6.4,-4.9,86,76,53,30.36,30.07,4,0,6,0.01
2013-1-27,27.8,20.6,10.2,16.0,13.2,6.1,88,73,55,30.54,30.34,5,0,9,0.01
2013-1-28,42.6,33.0,23.3,41.5,29.4,15.5,96,87,68,30.32,29.80,7,1,12,0.22
2013-1-29,53.1,40.7,32.2,52.6,39.9,31.2,100,97,95,30.00,29.69,9,1,12,0.37
2013-1-30,62.4,57.0,51.1,55.0,50.9,48.4,98,81,70,29.68,28.97,14,2,19,0.09
2013-1-31,54.1,30.6,21.9,50.9,20.5,7.7,91,67,43,29.65,28.95,25,9,32,0.12